| time (UTC) | temp C | wind direction | speed KPH | gust KPH | rain 1hr cm | rain 24hr cm | rain mn cm | humidity % | barometer mb |
| 20260506061556 | 13 | 63 | 8.0 | 0.0 | 0.00 | 0.00 | 0.00 | 100 | 1006.3 |
| 20260506044527 | 14 | 13 | 0.0 | 0.0 | 0.00 | 0.00 | 0.00 | 100 | 1007.3 |
| 20260506043022 | 13 | 13 | 3.2 | 0.0 | 0.00 | 0.00 | 0.00 | 100 | 1007.2 |
| 20260506041517 | 14 | 60 | 1.6 | 0.0 | 0.00 | 0.00 | 0.00 | 100 | 1007.2 |
| 20260506040027 | 14 | 55 | 1.6 | 0.0 | 0.00 | 0.00 | 0.00 | 100 | 1007.1 |
| 20260506034511 | 14 | 63 | 3.2 | 0.0 | 0.00 | 0.00 | 0.00 | 100 | 1006.9 |
| 20260506033006 | 15 | 338 | 0.0 | 0.0 | 0.00 | 0.00 | 0.00 | 100 | 1006.9 |
| 20260506031501 | 15 | 338 | 0.0 | 0.0 | 0.00 | 0.00 | 0.00 | 100 | 1006.9 |
| 20260506030059 | 15 | 338 | 1.6 | 0.0 | 0.00 | 0.00 | 0.00 | 100 | 1006.8 |
| 20260506024557 | 15 | 338 | 4.8 | 0.0 | 0.00 | 0.00 | 0.00 | 100 | 1007.0 |
| 20260506023057 | 16 | 249 | 0.0 | 0.0 | 0.00 | 0.00 | 0.00 | 100 | 1007.2 |
| 20260506021554 | 16 | 244 | 1.6 | 0.0 | 0.00 | 0.00 | 0.00 | 100 | 1007.2 |
| 20260506020040 | 17 | 244 | 1.6 | 0.0 | 0.00 | 0.00 | 0.00 | 100 | 1007.1 |
| 20260506014537 | 17 | 244 | 1.6 | 0.0 | 0.00 | 0.00 | 0.00 | 100 | 1006.9 |
| 20260506013030 | 18 | 342 | 3.2 | 0.0 | 0.00 | 0.00 | 0.00 | 100 | 1006.8 |
| 20260506011529 | 18 | 332 | 3.2 | 0.0 | 0.00 | 0.00 | 0.00 | 100 | 1006.7 |
| 20260506010040 | 20 | 261 | 1.6 | 0.0 | 0.00 | 0.00 | 0.00 | 100 | 1006.7 |
| 20260506004517 | 21 | 213 | 0.0 | 0.0 | 0.00 | 0.00 | 0.00 | 100 | 1006.5 |
| 20260506003012 | 21 | 215 | 1.6 | 0.0 | 0.00 | 0.00 | 0.00 | 100 | 1006.4 |
| 20260506001508 | 22 | 293 | 1.6 | 0.0 | 0.00 | 0.00 | 0.00 | 100 | 1006.1 |
| 20260506000004 | 22 | 331 | 6.4 | 0.0 | 0.00 | 0.00 | 0.00 | 100 | 1005.9 |
| 20260505234611 | 23 | 266 | 4.8 | 0.0 | 0.00 | 0.00 | 0.00 | 100 | 1005.7 |
| 20260505233055 | 23 | 202 | 1.6 | 0.0 | 0.00 | 0.00 | 0.00 | 100 | 1005.7 |
| 20260505231553 | 23 | 186 | 4.8 | 0.0 | 0.00 | 0.00 | 0.00 | 100 | 1005.7 |
| 20260505230046 | 23 | 338 | 9.7 | 0.0 | 0.00 | 0.00 | 0.00 | 100 | 1005.4 |
| 20260505224542 | 24 | 279 | 11.3 | 0.0 | 0.00 | 0.00 | 0.00 | 100 | 1005.1 |
| 20260505223040 | 25 | 292 | 14.5 | 0.0 | 0.00 | 0.00 | 0.00 | 100 | 1005.1 |
| 20260505221534 | 27 | 282 | 16.1 | 0.0 | 0.00 | 0.00 | 0.00 | 100 | 1004.9 |
| 20260505220029 | 27 | 183 | 19.3 | 0.0 | 0.00 | 0.00 | 0.00 | 100 | 1004.7 |
| 20260505214552 | 27 | 205 | 24.1 | 0.0 | 0.00 | 0.00 | 0.00 | 100 | 1004.7 |
| 20260505213021 | 27 | 181 | 29.0 | 0.0 | 0.00 | 0.00 | 0.00 | 100 | 1004.7 |
| 20260505211516 | 27 | 194 | 32.2 | 0.0 | 0.00 | 0.00 | 0.00 | 100 | 1004.5 |
| 20260505210011 | 27 | 210 | 27.4 | 0.0 | 0.00 | 0.00 | 0.00 | 100 | 1004.4 |
| 20260505204508 | 27 | 214 | 25.7 | 0.0 | 0.00 | 0.00 | 0.00 | 100 | 1004.4 |
| 20260505203008 | 26 | 211 | 25.7 | 0.0 | 0.00 | 0.00 | 0.00 | 100 | 1004.7 |
| 20260505201558 | 27 | 211 | 32.2 | 0.0 | 0.00 | 0.00 | 0.00 | 100 | 1004.7 |
| 20260505200105 | 26 | 223 | 33.8 | 0.0 | 0.00 | 0.00 | 0.00 | 100 | 1004.9 |
| 20260505194559 | 27 | 197 | 37.0 | 0.0 | 0.00 | 0.00 | 0.00 | 100 | 1005.2 |
| 20260505193050 | 27 | 206 | 30.6 | 0.0 | 0.00 | 0.00 | 0.00 | 100 | 1005.3 |
| 20260505191541 | 27 | 192 | 30.6 | 0.0 | 0.00 | 0.00 | 0.00 | 100 | 1005.3 |
| 20260505190038 | 27 | 178 | 27.4 | 0.0 | 0.00 | 0.00 | 0.00 | 100 | 1005.3 |
| 20260505184532 | 27 | 213 | 30.6 | 0.0 | 0.00 | 0.00 | 0.00 | 100 | 1005.3 |
| 20260505183027 | 26 | 174 | 33.8 | 0.0 | 0.00 | 0.00 | 0.00 | 100 | 1005.6 |
| 20260505181523 | 27 | 207 | 30.6 | 0.0 | 0.00 | 0.00 | 0.00 | 100 | 1005.8 |
| 20260505180040 | 26 | 215 | 29.0 | 0.0 | 0.00 | 0.00 | 0.00 | 100 | 1006.2 |
| 20260505174530 | 26 | 200 | 27.4 | 0.0 | 0.00 | 0.00 | 0.00 | 100 | 1006.3 |
| 20260505173017 | 26 | 198 | 30.6 | 0.0 | 0.00 | 0.00 | 0.00 | 100 | 1006.4 |
| 20260505171508 | 26 | 211 | 27.4 | 0.0 | 0.00 | 0.00 | 0.00 | 100 | 1006.4 |
| 20260505170001 | 26 | 238 | 29.0 | 0.0 | 0.00 | 0.00 | 0.00 | 100 | 1006.6 |
| 20260505164557 | 26 | 180 | 32.2 | 0.0 | 0.00 | 0.00 | 0.00 | 100 | 1006.7 |
| 20260505163055 | 25 | 217 | 25.7 | 0.0 | 0.00 | 0.00 | 0.00 | 100 | 1006.8 |
| 20260505161549 | 25 | 241 | 27.4 | 0.0 | 0.00 | 0.00 | 0.00 | 100 | 1007.1 |
| 20260505153035 | 24 | 232 | 32.2 | 0.0 | 0.00 | 0.00 | 0.00 | 100 | 1007.6 |
| 20260505151533 | 23 | 218 | 33.8 | 0.0 | 0.00 | 0.00 | 0.00 | 100 | 1007.7 |
| 20260505124547 | 18 | 94 | 1.6 | 0.0 | 0.00 | 0.00 | 0.00 | 100 | 1008.7 |
| 20260505123047 | 17 | 24 | 3.2 | 0.0 | 0.00 | 0.00 | 0.00 | 100 | 1008.8 |
| 20260505121538 | 16 | 66 | 4.8 | 0.0 | 0.00 | 0.00 | 0.00 | 100 | 1008.9 |
| 20260505120036 | 15 | 76 | 3.2 | 0.0 | 0.00 | 0.00 | 0.00 | 100 | 1008.8 |
| 20260505114530 | 13 | 34 | 3.2 | 0.0 | 0.00 | 0.00 | 0.00 | 100 | 1008.9 |
| 20260505113025 | 12 | 360 | 3.2 | 0.0 | 0.00 | 0.00 | 0.00 | 100 | 1008.9 |
| 20260505111521 | 12 | 10 | 3.2 | 0.0 | 0.00 | 0.00 | 0.00 | 100 | 1008.6 |
| 20260505101505 | 11 | 94 | 4.8 | 0.0 | 0.00 | 0.00 | 0.00 | 100 | 1008.2 |
| 20260505100059 | 11 | 277 | 4.8 | 0.0 | 0.00 | 0.00 | 0.00 | 100 | 1008.4 |
| 20260505094555 | 11 | 138 | 4.8 | 0.0 | 0.00 | 0.00 | 0.00 | 100 | 1008.3 |
| 20260505093050 | 10 | 346 | 1.6 | 0.0 | 0.00 | 0.00 | 0.00 | 100 | 1008.2 |
| 20260505091605 | 10 | 164 | 3.2 | 0.0 | 0.00 | 0.00 | 0.00 | 100 | 1008.0 |
| 20260505090045 | 11 | 41 | 6.4 | 0.0 | 0.00 | 0.00 | 0.00 | 100 | 1007.9 |
| 20260505084538 | 11 | 91 | 6.4 | 0.0 | 0.00 | 0.00 | 0.00 | 100 | 1007.8 |
| 20260505083035 | 11 | 46 | 8.0 | 0.0 | 0.00 | 0.00 | 0.00 | 100 | 1007.9 |
| 20260505081530 | 11 | 32 | 6.4 | 0.0 | 0.00 | 0.00 | 0.00 | 100 | 1007.9 |
| 20260505080025 | 11 | 42 | 6.4 | 0.0 | 0.00 | 0.00 | 0.00 | 100 | 1007.9 |
| 20260505074520 | 11 | 47 | 6.4 | 0.0 | 0.00 | 0.00 | 0.00 | 100 | 1007.6 |
| 20260505073016 | 12 | 31 | 6.4 | 0.0 | 0.00 | 0.00 | 0.00 | 100 | 1007.5 |
| 20260505071511 | 12 | 44 | 6.4 | 0.0 | 0.00 | 0.00 | 0.00 | 100 | 1007.4 |